West Palm Beach, FL

2:02 AM EST on November 20, 2019 (GMT -0500)
Palm Beach International

Weather History for KPBI - September, 2019

Change the Weather History Date:

Wednesday, September 4, 2019

  Actual Average Record
Temperature  
Mean Temperature 84 °F 82 °F  
Max Temperature 92 °F 89 °F 95 °F (1951)
Min Temperature 76 °F 76 °F 68 °F (1967)
Degree Days  
Heating Degree Days 0 0  
Month to date heating degree days 0 0  
Since 1 July heating degree days 0 0  
Cooling Degree Days 19 17  
Month to date cooling degree days 70 68  
Year to date cooling degree days 3236 2774  
Growing Degree Days 33 (Base 50)    
Moisture  
Dew Point 73 °F    
Average Humidity 71    
Maximum Humidity 85    
Minimum Humidity 56    
Precipitation  
Precipitation 0.00 in 0.27 in 6.41 in (1933)
Month to date precipitation 0.09 1.14  
Year to date precipitation 44.05 41.86  
Snow  
Snow 0.00 in - - ()
Month to date snowfall 0.0  
Since 1 July snowfall 0.0  
Since 1 September snowfall 0.0  
Snow Depth 0.00 in    
Sea Level Pressure  
Sea Level Pressure 29.82 in    
Wind  
Wind Speed 14 mph (WSW)    
Max Wind Speed 24 mph    
Max Gust Speed 32 mph    
Visibility 10 miles    
Events      
T = Trace of Precipitation, MM = Missing Value Source: NWS Daily Summary

Daily Weather History Graph

Daily Weather History Graph

Search for Another Location

Airport or City:

Astronomy

Sep. 04, 2019 Rise Set
Actual Time 7:01 AM EDT 7:37 PM EDT
Civil Twilight 6:37 AM EDT 8:00 PM EDT
Nautical Twilight 6:10 AM EDT 8:28 PM EDT
Astronomical Twilight 5:42 AM EDT 8:56 PM EDT
Moon 12:28 PM EDT (9/4) 11:45 PM EDT (9/4)
Length of Visible Light 13h 23m
Length of Day
12h 36m
Waxing Crescent, 34% of the Moon is Illuminated
Sep 4
Waxing Crescent
Sep 5
First Quarter
Sep 14
Full
Sep 21
Last Quarter
Sep 28
New

Hourly Weather History & Observations

Time (EDT) Temp. Heat Index Dew Point Humidity Pressure Visibility Wind Dir Wind Speed Gust Speed Precip Events Conditions
12:53 AM 78.1 °F - 71.1 °F 79% 29.71 in 10.0 mi West 23.0 mph 27.6 mph N/A   Partly Cloudy
1:53 AM 78.1 °F - 72.0 °F 81% 29.70 in 10.0 mi West 16.1 mph - N/A   Partly Cloudy
2:53 AM 77.0 °F - 72.0 °F 84% 29.70 in 10.0 mi WSW 16.1 mph - N/A   Clear
3:53 AM 77.0 °F - 71.1 °F 82% 29.71 in 10.0 mi WSW 17.3 mph 23.0 mph N/A   Clear
4:53 AM 77.0 °F - 72.0 °F 84% 29.74 in 10.0 mi WSW 15.0 mph 24.2 mph N/A   Partly Cloudy
5:53 AM 78.1 °F - 72.0 °F 81% 29.78 in 10.0 mi West 18.4 mph 24.2 mph N/A   Partly Cloudy
6:53 AM 78.1 °F - 73.0 °F 84% 29.80 in 10.0 mi WSW 13.8 mph - N/A   Clear
7:53 AM 78.1 °F - 73.0 °F 84% 29.81 in 10.0 mi SW 10.4 mph - N/A   Mostly Cloudy
8:53 AM 79.0 °F - 73.9 °F 84% 29.82 in 10.0 mi WSW 12.7 mph - N/A   Mostly Cloudy
9:53 AM 82.0 °F 88.6 °F 75.0 °F 79% 29.85 in 10.0 mi SW 15.0 mph - N/A   Mostly Cloudy
10:53 AM 84.0 °F 91.9 °F 75.0 °F 74% 29.86 in 10.0 mi SW 15.0 mph 26.5 mph N/A   Mostly Cloudy
11:53 AM 86.0 °F 95.1 °F 75.0 °F 70% 29.86 in 10.0 mi WSW 18.4 mph 28.8 mph N/A   Mostly Cloudy
12:53 PM 88.0 °F 97.5 °F 75.0 °F 65% 29.84 in 10.0 mi WSW 18.4 mph 27.6 mph N/A   Mostly Cloudy
1:53 PM 91.0 °F 100.4 °F 73.9 °F 57% 29.82 in 10.0 mi WSW 19.6 mph 28.8 mph N/A   Mostly Cloudy
2:53 PM 91.0 °F 100.4 °F 73.9 °F 57% 29.81 in 10.0 mi West 15.0 mph 27.6 mph N/A   Mostly Cloudy
3:53 PM 90.0 °F 99.0 °F 73.9 °F 59% 29.81 in 10.0 mi West 16.1 mph - N/A   Mostly Cloudy
4:53 PM 89.1 °F 97.0 °F 73.0 °F 59% 29.83 in 10.0 mi West 12.7 mph - N/A   Mostly Cloudy
5:53 PM 89.1 °F 95.0 °F 71.1 °F 55% 29.84 in 10.0 mi West 16.1 mph 23.0 mph N/A   Mostly Cloudy
6:53 PM 87.1 °F 93.6 °F 72.0 °F 61% 29.85 in 10.0 mi WSW 13.8 mph 21.9 mph N/A   Mostly Cloudy
7:53 PM 86.0 °F 92.2 °F 72.0 °F 63% 29.87 in 10.0 mi WSW 11.5 mph - N/A   Mostly Cloudy
8:53 PM 84.9 °F 90.7 °F 72.0 °F 65% 29.88 in 10.0 mi WSW 10.4 mph - N/A   Scattered Clouds
9:53 PM 82.9 °F 88.8 °F 73.0 °F 72% 29.91 in 10.0 mi WSW 11.5 mph - N/A   Scattered Clouds
10:53 PM 82.0 °F 87.9 °F 73.9 °F 76% 29.93 in 10.0 mi SW 12.7 mph - N/A   Scattered Clouds
11:53 PM 81.0 °F 86.2 °F 73.9 °F 79% 29.93 in 10.0 mi WSW 9.2 mph - N/A   Partly Cloudy